"2009-07-14 00:00:00",1060131,11.63,196.1,0.803,0.112,20.48,108.7478,21.68,22.64,32.85,0,111,13.19,22.51,158.1
"2009-07-14 00:00:30",1060132,11.62,195.9,0.97,0.225,20.47,108.753,21.69,22.64,33,0,111,13.19,22.52,157.9
"2009-07-14 00:01:00",1060133,11.58,195.8,0.86,0.096,20.62,108.7627,21.72,22.66,32.52,0,111,13.19,22.54,157.8
"2009-07-14 00:01:30",1060134,11.76,196.2,0.618,0.098,20.5,108.7858,21.78,22.67,32.61,0,111,13.19,22.60,158.2
"2009-07-14 00:02:00",1060135,11.63,197,1.683,0.118,20.39,108.7888,21.78,22.7,32.56,0,111,13.19,22.61,159.0
"2009-07-14 00:02:30",1060136,11.65,198.8,1.24,0.174,20.27,108.8039,21.82,22.71,33.86,0,111,13.19,22.65,160.8
"2009-07-14 00:03:00",1060137,11.72,198.1,0.947,0.149,20.36,108.822,21.87,22.76,32.97,0,111,13.2,22.70,160.1
"2009-07-14 00:03:30",1060138,11.14,200.4,2.572,0.427,19.99,108.8236,21.87,22.77,34.37,0,111,13.2,22.70,162.4
"2009-07-14 00:04:00",1060139,11.15,201.4,2.208,0.259,19.9,108.8471,21.93,22.82,36.12,0,111,13.2,22.76,163.4
"2009-07-14 00:04:30",1060140,11.45,200.1,1.469,0.231,19.97,108.856,21.96,22.84,35.77,0,111,13.2,22.78,162.1
"2009-07-14 00:05:00",1060141,10.75,201,1.469,0.457,19.95,108.8617,21.97,22.88,36.34,0,111,13.2,22.80,163.0
"2009-07-14 00:05:30",1060142,11.31,201.1,1.441,0.353,20.16,108.8791,22.02,22.92,35.45,0,111,13.2,22.84,163.1
"2009-07-14 00:06:00",1060143,11.74,200.8,2.281,0.272,20.29,108.8917,22.05,22.91,34.04,0,111,13.2,22.88,162.8
"2009-07-14 00:06:30",1060144,11.5,202.6,2.751,0.45,20.16,108.8937,22.05,22.92,34.79,0,111,13.2,22.88,164.6
"2009-07-14 00:07:00",1060145,11.75,199.6,1.329,0.52,20.33,108.8946,22.06,22.95,33.72,0,111,13.2,22.88,161.6
"2009-07-14 00:07:30",1060146,11.26,200.6,1.288,0.348,20.11,108.8954,22.06,22.96,34.23,0,111,13.2,22.89,162.6
"2009-07-14 00:08:00",1060147,11.3,199.5,3.228,0.579,20,108.9023,22.08,23.01,36.64,0,111,13.2,22.90,161.5
"2009-07-14 00:08:30",1060148,11.64,199.7,1.318,0.389,20.22,108.907,22.09,23.01,34.78,0,111,13.2,22.92,161.7
"2009-07-14 00:09:00",1060149,10.91,200.6,2.039,0.392,20,108.9187,22.12,23.01,35.56,0,111,13.2,22.95,162.6
"2009-07-14 00:09:30",1060150,11,200.1,2.12,0.578,20.18,108.9263,22.14,23.03,36.05,0,111,13.2,22.97,162.1
"2009-07-14 00:10:00",1060151,11.59,200.7,1.532,0.257,20.12,108.9297,22.15,23.04,35.88,0,111,13.2,22.97,162.7
"2009-07-14 00:10:30",1060152,10.84,200.1,2.145,0.314,20.04,108.9283,22.14,23.04,36.83,0,111,13.2,22.97,162.1
"2009-07-14 00:11:00",1060153,11.05,199.5,2.453,0.446,20.16,108.928,22.14,23.06,37.39,0,111,13.2,22.97,161.5
"2009-07-14 00:11:30",1060154,10.78,201,2.238,0.238,20.15,108.9198,22.12,23.07,36.92,0,111,13.2,22.95,163.0
"2009-07-14 00:12:00",1060155,11.29,198.2,3.618,0.369,20.27,108.9111,22.1,23.06,36.95,0,111,13.2,22.93,160.2
"2009-07-14 00:12:30",1060156,10.68,199.4,2.448,0.366,20.1,108.907,22.09,23.07,36.87,0,111,13.2,22.92,161.4
"2009-07-14 00:13:00",1060157,10.95,195.8,1.926,0.518,20.27,108.9042,22.08,23.04,36.95,0,111,13.2,22.91,157.8
"2009-07-14 00:13:30",1060158,11.17,195.9,2.335,0.643,20.24,108.8983,22.06,23.05,36.39,0,111,13.19,22.89,157.9
"2009-07-14 00:14:00",1060159,10.99,198.5,2.77,0.513,20.46,108.8977,22.06,23.03,35.3,0,111,13.19,22.89,160.5
"2009-07-14 00:14:30",1060160,10.64,197.3,3.356,0.695,20.36,108.898,22.06,23.04,35.87,0,111,13.19,22.89,159.3
"2009-07-14 00:15:00",1060161,11.85,194.6,1.558,0.19,20.63,108.8983,22.07,23.02,32.83,0,111,13.19,22.89,156.6
"2009-07-14 00:15:30",1060162,10.93,195.6,1.322,0.44,20.24,108.8983,22.07,23.03,34.08,0,111,13.19,22.89,157.6
"2009-07-14 00:16:00",1060163,10.22,194.3,2.947,0.312,20.18,108.8977,22.06,23.02,36.42,0,111,13.19,22.89,156.3
"2009-07-14 00:16:30",1060164,10.93,195.3,3.653,0.486,20.48,108.8986,22.07,23.01,34.81,0,111,13.19,22.89,157.3
"2009-07-14 00:17:00",1060165,10.42,195.8,2.284,0.518,20.13,108.8999,22.07,23.01,36.4,0,111,13.19,22.90,157.8
"2009-07-14 00:17:30",1060166,10.31,198.1,1.684,0.521,20.03,108.8989,22.07,23.01,37.62,0,111,13.19,22.90,160.1
"2009-07-14 00:18:00",1060167,10.45,197,1.515,0.325,20,108.9026,22.08,23.02,37.36,0,111,13.19,22.91,159.0
"2009-07-14 00:18:30",1060168,10.75,197.6,2.001,0.229,20.08,108.8996,22.07,23.02,37.42,0,111,13.19,22.90,159.6
"2009-07-14 00:19:00",1060169,10.27,196.1,2.443,0.33,19.93,108.9014,22.07,23.01,37.81,0,111,13.2,22.90,158.1
"2009-07-14 00:19:30",1060170,9.55,197,2.482,0.362,19.94,108.9011,22.07,23.02,38.63,0,111,13.2,22.90,159.0
"2009-07-14 00:20:00",1060171,10.03,196,1.378,0.343,20.01,108.9014,22.07,23.02,38.75,0,111,13.2,22.90,158.0
"2009-07-14 00:20:30",1060172,10.21,194.1,4.262,0.309,20.08,108.9032,22.08,23.02,39.26,0,111,13.2,22.91,156.1
"2009-07-14 00:21:00",1060173,10.52,196.1,1.93,0.385,20.29,108.9015,22.07,23.02,37.97,0,111,13.2,22.90,158.1
"2009-07-14 00:21:30",1060174,9.53,197.8,1.41,0.455,20.03,108.9031,22.08,23.02,39.13,0,111,13.2,22.91,159.8
"2009-07-14 00:22:00",1060175,9.47,197.9,1.858,0.229,20.01,108.9012,22.07,23.03,40.24,0,111,13.2,22.90,159.9
"2009-07-14 00:22:30",1060176,9.22,197.6,1.652,0.428,20.04,108.8975,22.06,23.01,40.5,0,111,13.2,22.89,159.6
"2009-07-14 00:23:00",1060177,9.95,194.8,2.207,0.187,20.05,108.8878,22.04,23.01,40.09,0,111,13.2,22.87,156.8
"2009-07-14 00:23:30",1060178,9.47,195.6,1.9,0.243,20.17,108.8773,22.01,23,39.53,0,111,13.2,22.84,157.6
"2009-07-14 00:24:00",1060179,9.6,198.9,1.636,0.299,20.15,108.8725,22,22.99,39.39,0,111,13.2,22.83,160.9
"2009-07-14 00:24:30",1060180,9.33,196.3,2.424,0.225,19.97,108.8725,22,22.98,40.36,0,111,13.2,22.83,158.3
"2009-07-14 00:25:00",1060181,9.42,195.7,2.219,0.301,19.96,108.8722,22,22.98,40.39,0,111,13.2,22.83,157.7
"2009-07-14 00:25:30",1060182,9.89,196.2,2.787,0.404,19.95,108.8725,22,22.96,40.29,0,111,13.2,22.83,158.2
"2009-07-14 00:26:00",1060183,9.72,190.9,2.066,0.375,19.94,108.8664,21.98,22.95,41.18,0,111,13.2,22.81,152.9
"2009-07-14 00:26:30",1060184,10.01,192.8,2.713,0.394,19.93,108.8473,21.93,22.95,41.02,0,111,13.2,22.76,154.8
"2009-07-14 00:27:00",1060185,9.98,192.9,2.454,0.231,20.14,108.8405,21.92,22.95,39.72,0,111,13.2,22.75,154.9
"2009-07-14 00:27:30",1060186,10.06,191.4,2.018,0.415,19.95,108.8391,21.91,22.92,41.3,0,111,13.2,22.74,153.4
"2009-07-14 00:28:00",1060187,10.07,194.3,2.693,0.269,20.01,108.8394,21.91,22.89,41.2,0,111,13.2,22.74,156.3
"2009-07-14 00:28:30",1060188,9.82,194.1,2.168,0.374,19.94,108.8357,21.9,22.9,41.48,0,111,13.2,22.73,156.1
"2009-07-14 00:29:00",1060189,8.92,196.6,1.256,0.525,19.84,108.8104,21.84,22.89,42.8,0,111,13.2,22.67,158.6
"2009-07-14 00:29:30",1060190,8.8,197.3,2.363,0.375,19.84,108.8057,21.83,22.88,43.54,0,111,13.2,22.66,159.3
"2009-07-14 00:30:00",1060191,9.84,194.3,1.975,0.747,19.93,108.8057,21.83,22.85,42.84,0,111,13.2,22.66,156.3
"2009-07-14 00:30:30",1060192,10.89,194.2,1.453,0.216,20.01,108.8034,21.82,22.82,40.85,0,111,13.2,22.65,156.2
"2009-07-14 00:31:00",1060193,10.73,192.8,1.138,0.237,19.92,108.7832,21.77,22.8,41.38,0,111,13.2,22.60,154.8
"2009-07-14 00:31:30",1060194,9.42,193.9,2.018,0.762,19.73,108.7733,21.74,22.8,43.21,0,111,13.2,22.57,155.9
"2009-07-14 00:32:00",1060195,9.91,194,0.957,0.577,19.84,108.7719,21.74,22.77,43.84,0,110.9,13.2,22.57,156.0
"2009-07-14 00:32:30",1060196,10.33,194.7,1.284,0.423,19.84,108.7716,21.74,22.77,42.44,0,111,13.2,22.57,156.7
"2009-07-14 00:33:00",1060197,10.33,194.5,0.974,0.254,19.96,108.7618,21.71,22.73,42.59,0,111,13.2,22.54,156.5
"2009-07-14 00:33:30",1060198,11.07,193.5,1.66,0.267,20.15,108.7421,21.66,22.7,41.4,0,111,13.2,22.49,155.5
"2009-07-14 00:34:00",1060199,10.81,192.7,1.216,0.254,20.09,108.7382,21.65,22.7,41.8,0,111,13.2,22.48,154.7
"2009-07-14 00:34:30",1060200,10.63,193,1.289,0.387,20.02,108.7382,21.65,22.69,42,0,110.9,13.2,22.48,155.0
"2009-07-14 00:35:00",1060201,10.76,192.6,1.864,0.432,20.2,108.7382,21.65,22.65,41,0,111,13.2,22.48,154.6
"2009-07-14 00:35:30",1060202,10.25,191.5,0.889,0.179,20.02,108.7328,21.64,22.65,41.29,0,111,13.2,22.47,153.5
"2009-07-14 00:36:00",1060203,10.49,191.4,0.955,0.133,19.96,108.7174,21.6,22.63,42.41,0,111,13.2,22.43,153.4
"2009-07-14 00:36:30",1060204,10.47,192.1,0.913,0.236,19.95,108.7112,21.58,22.63,42.85,0,110.9,13.2,22.41,154.1
"2009-07-14 00:37:00",1060205,10.35,192,1.155,0.215,19.94,108.7045,21.57,22.61,42.78,0,111,13.2,22.39,154.0
"2009-07-14 00:37:30",1060206,10.76,191.6,1.221,0.299,20,108.7045,21.57,22.6,42.9,0,110.9,13.2,22.39,153.6
"2009-07-14 00:38:00",1060207,11.25,192,1.615,0.298,20.14,108.7045,21.57,22.6,41.71,0,110.9,13.21,22.39,154.0
"2009-07-14 00:38:30",1060208,11.11,193.1,2.069,0.24,19.92,108.7045,21.57,22.59,41.96,0,110.9,13.21,22.39,155.1
"2009-07-14 00:39:00",1060209,10.63,193,1.173,0.253,19.89,108.7045,21.57,22.57,43.6,0,110.9,13.21,22.39,155.0
"2009-07-14 00:39:30",1060210,10.71,193.7,0.858,0.179,19.73,108.7036,21.57,22.57,44.85,0,110.9,13.21,22.39,155.7
"2009-07-14 00:40:00",1060211,10.46,193.9,0.692,0.129,19.72,108.703,21.56,22.56,46.18,0,110.9,13.21,22.39,155.9
"2009-07-14 00:40:30",1060212,10.59,194,0.502,0.081,19.76,108.703,21.56,22.55,45.84,0,110.9,13.21,22.39,156.0
"2009-07-14 00:41:00",1060213,10.81,194.3,1.041,0.107,19.93,108.696,21.55,22.55,45.1,0,110.9,13.21,22.37,156.3
"2009-07-14 00:41:30",1060214,11.22,195.9,1.243,0.132,20.05,108.6839,21.51,22.53,44.09,0,110.9,13.21,22.34,157.9
"2009-07-14 00:42:00",1060215,11.13,197.3,0.985,0.236,20.06,108.6786,21.5,22.53,43.25,0,110.9,13.21,22.33,159.3
"2009-07-14 00:42:30",1060216,10.8,198.1,0.993,0.3,19.96,108.6749,21.49,22.53,43.71,0,110.9,13.21,22.32,160.1
"2009-07-14 00:43:00",1060217,10.98,198.4,0.991,0.256,19.91,108.671,21.48,22.51,44,0,110.9,13.21,22.31,160.4
"2009-07-14 00:43:30",1060218,11.07,197.9,1.213,0.236,20.11,108.6707,21.48,22.5,44.46,0,110.9,13.21,22.31,159.9
"2009-07-14 00:44:00",1060219,11.04,197.6,1.668,0.334,20,108.6707,21.48,22.5,43.71,0,110.9,13.21,22.31,159.6
"2009-07-14 00:44:30",1060220,11.22,197.4,1.452,0.253,20.08,108.6707,21.48,22.49,43.97,0,110.9,13.21,22.31,159.4
"2009-07-14 00:45:00",1060221,11.82,198.8,0.646,0.132,20.55,108.6707,21.48,22.47,39.93,0,110.9,13.21,22.31,160.8
"2009-07-14 00:45:30",1060222,11.88,199.4,1.306,0.195,20.6,108.6696,21.48,22.46,37.64,0,110.9,13.21,22.30,161.4
"2009-07-14 00:46:00",1060223,12.05,200.3,0.631,0.112,20.54,108.6699,21.48,22.45,35.64,0,110.9,13.21,22.31,162.3
"2009-07-14 00:46:30",1060224,12.07,200.8,0.659,0.096,20.59,108.6687,21.48,22.45,35.27,0,110.9,13.21,22.30,162.8
"2009-07-14 00:47:00",1060225,12.02,200,0.652,0.073,20.55,108.6702,21.48,22.45,34.48,0,110.9,13.21,22.31,162.0
"2009-07-14 00:47:30",1060226,11.99,199.8,0.648,0.179,20.52,108.6707,21.48,22.45,34.82,0,110.9,13.2,22.31,161.8
"2009-07-14 00:48:00",1060227,11.99,198.8,0.761,0.139,20.48,108.6707,21.48,22.46,34.69,0,110.9,13.2,22.31,160.8
"2009-07-14 00:48:30",1060228,11.8,199.4,0.531,0.131,20.28,108.6716,21.48,22.46,36.31,0,110.9,13.2,22.31,161.4
"2009-07-14 00:49:00",1060229,11.88,199.8,0.528,0.172,20.36,108.6817,21.51,22.48,36.54,0,110.9,13.2,22.34,161.8
"2009-07-14 00:49:30",1060230,11.72,199.1,0.634,0.165,20.09,108.7011,21.56,22.49,37.24,0,110.9,13.2,22.39,161.1
"2009-07-14 00:50:00",1060231,11.53,199.5,0.724,0.233,19.98,108.7045,21.57,22.53,39.22,0,110.9,13.2,22.39,161.5
"2009-07-14 00:50:30",1060232,11.71,198.8,0.818,0.287,20.25,108.7067,21.57,22.53,39.04,0,110.9,13.2,22.40,160.8
"2009-07-14 00:51:00",1060233,11.78,198.6,0.656,0.103,20.25,108.7261,21.62,22.56,37.18,0,110.9,13.2,22.45,160.6
"2009-07-14 00:51:30",1060234,11.34,197.3,0.899,0.168,19.78,108.7382,21.65,22.59,40.5,0,110.9,13.2,22.48,159.3
"2009-07-14 00:52:00",1060235,11.59,197.1,0.985,0.179,20.05,108.7382,21.65,22.6,40.17,0,110.9,13.2,22.48,159.1
"2009-07-14 00:52:30",1060236,11.34,196.6,1.152,0.218,19.91,108.7421,21.66,22.63,40.35,0,110.9,13.2,22.49,158.6
"2009-07-14 00:53:00",1060237,11.42,196.4,0.898,0.269,19.89,108.7612,21.71,22.66,41.82,0,110.9,13.2,22.54,158.4
"2009-07-14 00:53:30",1060238,11.5,198.1,1.416,0.429,19.97,108.7719,21.74,22.66,39.36,0,110.9,13.21,22.57,160.1
"2009-07-14 00:54:00",1060239,11.65,197.7,0.531,0.166,19.95,108.7719,21.74,22.69,39.3,0,110.9,13.21,22.57,159.7
"2009-07-14 00:54:30",1060240,11.55,198.4,1.117,0.144,19.84,108.7719,21.74,22.69,39.84,0,110.9,13.21,22.57,160.4
"2009-07-14 00:55:00",1060241,11.2,194.5,2.039,0.206,19.7,108.7719,21.74,22.7,41.51,0,110.9,13.21,22.57,156.5
"2009-07-14 00:55:30",1060242,11.62,197.4,0.703,0.208,19.93,108.7742,21.75,22.72,39.46,0,110.9,13.21,22.57,159.4
"2009-07-14 00:56:00",1060243,11.68,199,0.607,0.147,19.95,108.7801,21.76,22.73,38.33,0,110.9,13.21,22.59,161.0
"2009-07-14 00:56:30",1060244,11.56,199.1,0.568,0.12,19.9,108.7832,21.77,22.74,38.25,0,110.9,13.21,22.60,161.1
"2009-07-14 00:57:00",1060245,11.75,198.6,0.514,0.089,19.94,108.7908,21.79,22.75,38.36,0,110.9,13.21,22.62,160.6
"2009-07-14 00:57:30",1060246,11.79,199.3,0.805,0.1,19.94,108.7984,21.81,22.75,38.2,0,110.9,13.21,22.64,161.3
"2009-07-14 00:58:00",1060247,11.64,200.6,0.857,0.144,19.94,108.8051,21.83,22.77,37.87,0,110.9,13.21,22.65,162.6
"2009-07-14 00:58:30",1060248,11.42,200.9,0.646,0.228,19.88,108.8057,21.83,22.77,37.78,0,110.9,13.21,22.66,162.9
"2009-07-14 00:59:00",1060249,11.23,201.5,0.768,0.168,19.73,108.8057,21.83,22.78,38.81,0,110.9,13.21,22.66,163.5
"2009-07-14 00:59:30",1060250,11.32,201.8,0.461,0.125,19.72,108.8057,21.83,22.79,39.59,0,110.9,13.21,22.66,163.8
"2009-07-14 01:00:00",1060251,11.73,202.6,0.528,0.045,20.13,108.8057,21.83,22.8,37.98,0,110.9,13.21,22.66,164.6
"2009-07-14 01:00:30",1060252,11.66,202.7,0.526,0.05,20.39,108.8057,21.83,22.81,34.86,0,110.9,13.21,22.66,164.7
"2009-07-14 01:01:00",1060253,11.64,202,0.02,0.058,20.37,108.8088,21.84,22.82,33.59,0,110.9,13.21,22.66,164.0
"2009-07-14 01:01:30",1060254,11.34,202.3,0.451,0.086,20.32,108.8189,21.86,22.81,33.13,0,110.9,13.21,22.69,164.3
"2009-07-14 01:02:00",1060255,11.04,200.8,0.726,0.183,20.45,108.8388,21.91,22.82,32.89,0,110.9,13.21,22.74,162.8
"2009-07-14 01:02:30",1060256,11.16,200.8,0.53,0.049,20.34,108.8394,21.91,22.84,32.7,0,110.9,13.21,22.74,162.8
"2009-07-14 01:03:00",1060257,11.04,201.2,0.396,0.058,20.31,108.8425,21.92,22.86,32.68,0,110.9,13.21,22.75,163.2
"2009-07-14 01:03:30",1060258,11.26,202.2,0.654,0.143,20.23,108.8661,21.98,22.89,32.7,0,110.9,13.21,22.81,164.2
"2009-07-14 01:04:00",1060259,11.35,202.9,0.367,0.044,20.14,108.8731,22,22.91,32.93,0,110.9,13.21,22.83,164.9
"2009-07-14 01:04:30",1060260,11.65,202.9,0.714,0.169,20.03,108.8892,22.04,22.93,33.54,0,110.9,13.2,22.87,164.9
"2009-07-14 01:05:00",1060261,11.62,201.6,0.405,0.068,19.73,108.906,22.08,22.97,35.71,0,110.9,13.2,22.91,163.6
"2009-07-14 01:05:30",1060262,11.5,200.5,0.425,0.094,19.59,108.91,22.09,23.02,38.58,0,110.9,13.2,22.92,162.5
"2009-07-14 01:06:00",1060263,11.41,201.6,0.816,0.128,19.61,108.9333,22.15,23.04,40.1,0,111,13.2,22.98,163.6
"2009-07-14 01:06:30",1060264,11.48,201.6,0.516,0.133,19.81,108.9406,22.17,23.07,40.13,0,111,13.2,23.00,163.6
"2009-07-14 01:07:00",1060265,11.57,201.5,0.613,0.121,19.91,108.9406,22.17,23.1,39.54,0,110.9,13.2,23.00,163.5
"2009-07-14 01:07:30",1060266,11.63,201.2,0.778,0.085,20.03,108.9476,22.19,23.12,39.57,0,111,13.2,23.02,163.2
"2009-07-14 01:08:00",1060267,11.34,200.5,0.851,0.068,19.9,108.9538,22.21,23.15,39.77,0,111,13.2,23.04,162.5
"2009-07-14 01:08:30",1060268,11.24,201.8,0.321,0.04,19.96,108.9552,22.21,23.15,40.28,0,111,13.2,23.04,163.8
"2009-07-14 01:09:00",1060269,11.37,203.7,0.535,0.117,20.01,108.9578,22.22,23.17,39.9,0,111,13.2,23.05,165.7
"2009-07-14 01:09:30",1060270,11.23,204.5,0.565,0.091,20.11,108.9541,22.21,23.17,39.94,0,111,13.2,23.04,166.5
"2009-07-14 01:10:00",1060271,11.18,204.2,0.442,0.067,20.1,108.951,22.2,23.17,40.24,0,111,13.2,23.03,166.2
"2009-07-14 01:10:30",1060272,11.15,203.7,0.766,0.127,19.89,108.9443,22.18,23.17,41.22,0,111,13.2,23.01,165.7
"2009-07-14 01:11:00",1060273,11.05,204,0.581,0.123,19.95,108.9406,22.17,23.17,41.16,0,111,13.2,23.00,166.0
"2009-07-14 01:11:30",1060274,10.5,202.7,0.965,0.178,19.8,108.9406,22.17,23.15,41.99,0,111,13.2,23.00,164.7
"2009-07-14 01:12:00",1060275,11.07,202.6,0.634,0.145,19.97,108.9403,22.17,23.16,42.46,0,111,13.2,23.00,164.6
"2009-07-14 01:12:30",1060276,11.04,203.6,0.598,0.11,19.91,108.9192,22.12,23.14,42.47,0,110.9,13.2,22.95,165.6
"2009-07-14 01:13:00",1060277,10.86,202.8,0.673,0.103,19.84,108.9072,22.09,23.12,42.6,0,110.9,13.2,22.92,164.8
"2009-07-14 01:13:30",1060278,10.45,202.9,0.819,0.231,19.86,108.9069,22.09,23.09,42.78,0,111,13.21,22.92,164.9
"2009-07-14 01:14:00",1060279,10.5,203.9,0.624,0.137,19.96,108.8917,22.05,23.07,43.26,0,111,13.21,22.88,165.9
"2009-07-14 01:14:30",1060280,10.15,204.8,0.935,0.306,19.88,108.8731,22,23.05,43.33,0,111,13.21,22.83,166.8
"2009-07-14 01:15:00",1060281,9.95,205.5,2.088,0.315,19.85,108.8698,21.99,23.02,44.01,0,111,13.21,22.82,167.5
"2009-07-14 01:15:30",1060282,10.25,205.6,1.422,0.304,19.96,108.8433,21.92,22.99,43.9,0,111,13.21,22.75,167.6
"2009-07-14 01:16:00",1060283,10.01,206,1.286,0.171,20,108.8394,21.91,22.96,43.61,0,110.9,13.21,22.74,168.0
"2009-07-14 01:16:30",1060284,9.66,206.7,2.83,0.57,19.99,108.8166,21.86,22.93,43.78,0,110.9,13.21,22.68,168.7
"2009-07-14 01:17:00",1060285,10.31,208,1.435,0.341,20.13,108.8057,21.83,22.89,43.66,0,111,13.21,22.66,170.0
"2009-07-14 01:17:30",1060286,10.75,208.2,0.862,0.189,20.26,108.7865,21.78,22.86,42.38,0,110.9,13.21,22.61,170.2
"2009-07-14 01:18:00",1060287,10.73,212.1,0.864,0.153,20.82,108.7719,21.74,22.82,39.35,0,110.9,13.21,22.57,174.1
"2009-07-14 01:18:30",1060288,10.43,207.5,2.521,0.526,20.15,108.7663,21.73,22.77,40.1,0,110.9,13.21,22.55,169.5
"2009-07-14 01:19:00",1060289,9.64,208.5,1.748,0.337,19.94,108.7424,21.66,22.76,43.24,0,110.9,13.21,22.49,170.5
"2009-07-14 01:19:30",1060290,9.96,209.8,1.92,0.446,19.99,108.7382,21.65,22.73,44.16,0,110.9,13.21,22.48,171.8
"2009-07-14 01:20:00",1060291,10.61,213.3,0.76,0.123,20.67,108.7382,21.65,22.71,41.03,0,110.9,13.21,22.48,175.3
"2009-07-14 01:20:30",1060292,10.67,213.4,1.878,0.309,20.51,108.7244,21.62,22.67,40.37,0,110.9,13.21,22.45,175.4
"2009-07-14 01:21:00",1060293,10.02,209.4,2.254,0.288,20.03,108.709,21.58,22.67,41.31,0,110.9,13.21,22.41,171.4
"2009-07-14 01:21:30",1060294,9.88,211.8,1.087,0.181,19.94,108.7045,21.57,22.65,43.54,0,110.9,13.2,22.39,173.8
"2009-07-14 01:22:00",1060295,9.8,209.1,2.753,0.281,19.91,108.7048,21.57,22.65,45.22,0,110.9,13.2,22.40,171.1
"2009-07-14 01:22:30",1060296,9.75,212.3,1.724,0.307,19.93,108.7045,21.57,22.62,45.24,0,110.9,13.2,22.39,174.3
"2009-07-14 01:23:00",1060297,10.16,213.5,1.145,0.1,20.06,108.7039,21.57,22.6,44.68,0,110.9,13.2,22.39,175.5
"2009-07-14 01:23:30",1060298,9.84,214.9,1.57,0.332,20.07,108.6898,21.53,22.59,44.78,0,110.9,13.2,22.36,176.9
"2009-07-14 01:24:00",1060299,9.77,214.4,1.179,0.263,20.09,108.6749,21.49,22.57,44.15,0,110.9,13.2,22.32,176.4
"2009-07-14 01:24:30",1060300,8.86,213.2,1.804,0.336,19.97,108.6707,21.48,22.55,45.13,0,110.9,13.2,22.31,175.2
"2009-07-14 01:25:00",1060301,8.4,214.5,2.472,0.291,19.95,108.671,21.48,22.54,45.8,0,110.9,13.2,22.31,176.5
"2009-07-14 01:25:30",1060302,8.46,214.8,1.911,0.587,20.07,108.6716,21.48,22.53,45.39,0,110.9,13.2,22.31,176.8
"2009-07-14 01:26:00",1060303,8.6,215.3,2.22,0.243,19.99,108.6664,21.47,22.51,45.77,0,110.9,13.2,22.30,177.3
"2009-07-14 01:26:30",1060304,7.789,216.1,3.934,0.376,19.88,108.65,21.43,22.49,46.36,0,110.9,13.2,22.25,178.1
"2009-07-14 01:27:00",1060305,8.3,217.8,2.659,0.346,20.12,108.6441,21.41,22.48,45.91,0,110.9,13.21,22.24,179.8
"2009-07-14 01:27:30",1060306,8.22,216.3,2.318,0.254,20.02,108.6428,21.41,22.47,46.17,0,110.9,13.21,22.24,178.3
"2009-07-14 01:28:00",1060307,8.24,218,3.733,0.314,20.15,108.6403,21.4,22.46,45.59,0,110.9,13.21,22.23,180.0
"2009-07-14 01:28:30",1060308,7.514,216.8,2.267,0.249,19.88,108.641,21.4,22.43,46.31,0,110.9,13.21,22.23,178.8
"2009-07-14 01:29:00",1060309,8.3,217.7,2.052,0.521,20.29,108.6313,21.38,22.43,46.06,0,110.9,13.21,22.21,179.7
"2009-07-14 01:29:30",1060310,8,215.4,1.914,0.348,20.2,108.6168,21.34,22.4,44.28,0,110.9,13.21,22.17,177.4
"2009-07-14 01:30:00",1060311,7.686,214.8,3.058,0.389,19.98,108.6072,21.32,22.39,45.97,0,110.9,13.21,22.14,176.8
"2009-07-14 01:30:30",1060312,7.944,216.5,2.642,0.473,20.23,108.6081,21.32,22.38,45.27,0,110.9,13.21,22.15,178.5
"2009-07-14 01:31:00",1060313,7.968,216.7,2.596,0.48,19.98,108.6096,21.32,22.37,46.5,0,110.9,13.21,22.15,178.7
"2009-07-14 01:31:30",1060314,7.733,214.2,2.719,0.473,20.01,108.6078,21.32,22.35,46.63,0,110.9,13.21,22.15,176.2
"2009-07-14 01:32:00",1060315,7.577,213.3,3.195,0.467,19.98,108.6078,21.32,22.35,47.26,0,110.9,13.21,22.15,175.3
"2009-07-14 01:32:30",1060316,8.12,215.1,1.384,0.261,20.02,108.6086,21.32,22.34,47.2,0,110.9,13.21,22.15,177.1
"2009-07-14 01:33:00",1060317,8.19,214.5,1.515,0.256,20.16,108.593,21.28,22.33,47.11,0,110.9,13.21,22.11,176.5
"2009-07-14 01:33:30",1060318,8.62,215.3,1.424,0.194,20.15,108.5877,21.27,22.32,46.99,0,110.9,13.21,22.09,177.3
"2009-07-14 01:34:00",1060319,8.32,213.6,2.922,0.321,20.07,108.5822,21.25,22.31,47.11,0,110.9,13.21,22.08,175.6
"2009-07-14 01:34:30",1060320,8.24,212.5,2.066,0.56,20.1,108.5832,21.26,22.3,47.47,0,110.9,13.21,22.08,174.5
"2009-07-14 01:35:00",1060321,8.5,212.8,1.029,0.348,20.18,108.5829,21.26,22.29,47.08,0,110.9,13.21,22.08,174.8
"2009-07-14 01:35:30",1060322,8.46,213.1,1.321,0.168,20.23,108.5829,21.26,22.29,46.87,0,110.9,13.21,22.08,175.1
"2009-07-14 01:36:00",1060323,8.2,211.1,1.119,0.21,20.11,108.5896,21.27,22.29,46.64,0,110.9,13.21,22.10,173.1
"2009-07-14 01:36:30",1060324,8.33,211.5,1.473,0.152,20.16,108.5933,21.28,22.27,46.77,0,110.9,13.21,22.11,173.5
"2009-07-14 01:37:00",1060325,8.37,212.9,2.58,0.174,20.19,108.5924,21.28,22.26,45.69,0,110.9,13.21,22.11,174.9
"2009-07-14 01:37:30",1060326,7.856,212.1,2.189,0.219,19.9,108.5951,21.29,22.27,46.63,0,110.9,13.21,22.11,174.1
"2009-07-14 01:38:00",1060327,8.2,216.8,1.724,0.162,20.58,108.5967,21.29,22.27,44.32,0,110.9,13.21,22.12,178.8
"2009-07-14 01:38:30",1060328,7.989,217.1,1.096,0.192,20.7,108.5967,21.29,22.26,39.99,0,110.9,13.21,22.12,179.1
"2009-07-14 01:39:00",1060329,7.938,214,1.144,0.226,19.81,108.5967,21.29,22.27,44.01,0,110.9,13.21,22.12,176.0
"2009-07-14 01:39:30",1060330,7.65,215.8,1.256,0.119,19.83,108.593,21.28,22.26,45.88,0,110.9,13.21,22.11,177.8
"2009-07-14 01:40:00",1060331,7.771,218.3,1.553,0.113,19.97,108.6023,21.31,22.28,45.73,0,110.9,13.21,22.13,180.3
"2009-07-14 01:40:30",1060332,7.711,219,1.073,0.122,19.96,108.621,21.35,22.29,45.62,0,110.9,13.21,22.18,181.0
"2009-07-14 01:41:00",1060333,7.141,219.2,1.059,0.217,19.67,108.6258,21.37,22.32,46.68,0,110.9,13.21,22.19,181.2
"2009-07-14 01:41:30",1060334,6.583,219.9,1.605,0.282,19.62,108.6233,21.36,22.34,47.5,0,110.9,13.21,22.19,181.9
"2009-07-14 01:42:00",1060335,6.397,220.4,1.869,0.248,19.64,108.6444,21.41,22.35,47.81,0,110.9,13.21,22.24,182.4
"2009-07-14 01:42:30",1060336,5.801,222,1.777,0.359,19.59,108.6565,21.44,22.39,47.99,0,110.9,13.21,22.27,184.0
"2009-07-14 01:43:00",1060337,5.781,220.6,3.442,0.34,19.54,108.6547,21.44,22.38,48.33,0,110.9,13.21,22.27,182.6
"2009-07-14 01:43:30",1060338,5.191,213.9,3.338,0.417,19.52,108.6532,21.44,22.42,48.52,0,110.9,13.21,22.26,175.9
"2009-07-14 01:44:00",1060339,6.082,218.4,3.476,0.38,19.67,108.6586,21.45,22.43,48.48,0,110.9,13.21,22.28,180.4
"2009-07-14 01:44:30",1060340,6.07,217.6,2.285,0.197,19.76,108.6608,21.46,22.44,48.05,0,110.9,13.21,22.28,179.6
"2009-07-14 01:45:00",1060341,5.805,218.6,2.614,0.374,19.64,108.6768,21.5,22.44,48.19,0,110.9,13.21,22.32,180.6
"2009-07-14 01:45:30",1060342,4.929,215.2,2.174,0.332,19.65,108.6805,21.51,22.46,48.35,0,110.9,13.21,22.33,177.2
"2009-07-14 01:46:00",1060343,4.266,215.8,1.642,0.297,19.6,108.678,21.5,22.48,48.44,0,110.9,13.21,22.33,177.8
"2009-07-14 01:46:30",1060344,4.361,218.6,5.141,0.464,19.6,108.6799,21.5,22.49,48.54,0,110.9,13.21,22.33,180.6
"2009-07-14 01:47:00",1060345,3.631,222.1,3.432,0.328,19.54,108.6768,21.5,22.48,48.62,0,110.9,13.21,22.32,184.1
"2009-07-14 01:47:30",1060346,3.006,224.7,3.838,0.254,19.56,108.6787,21.5,22.51,48.72,0,110.9,13.21,22.33,186.7
"2009-07-14 01:48:00",1060347,2.122,243.9,9.05,0.405,19.53,108.6796,21.5,22.5,48.82,0,110.9,13.21,22.33,205.9